(314374) = 2005 UJ49

Discovered at Catalina on 2005-10-23 by CSS.

Orbit

Orbit type: Main Belt

Note: WebGL enabled browser required.

epoch2024-03-31.0
epoch JD2460400.5
perihelion date2023-02-11.65504
perihelion JD2459987.15504
argument of perihelion (°)86.29712
ascending node (°)12.92347
inclination (°)13.15009
eccentricity0.3012236
perihelion distance (AU)2.2024443
Tisserand w.r.t. Jupiter3.1
ΔV w.r.t. Earth (km/sec)10.2
semimajor axis (AU)3.1518586
mean anomaly (°)72.80591
mean daily motion (°/day)0.17613840
aphelion distance (AU)4.101
period (years)5.6
P-vector [x]-0.15438353
P-vector [y]0.79192018
P-vector [z]0.59078605
Q-vector [x]-0.98669998
Q-vector [y]-0.15437245
Q-vector [z]-0.05091449
absolute magnitude16.67
phase slope0.15
uncertainty0
referenceE2024-H18
observations used219
oppositions11
arc length (days)8507
first opposition used2000
last opposition used2024
residual rms (arc-secs)0.72
perturbers coarse indicatorM-v
perturbers precise indicator003Ek
first observation date used2000-12-31.0
last observation date used2024-04-16.0
computer nameMPCLINUX
JD of orbit computation2456465.507505
perihelion JD uncertainty (days)1.0512E-04
argument of perihelion uncertainty (°)4.0141E-05
ascending node uncertainty (°)3.1526E-05
inclination uncertainty (°)1.2679E-05
eccentricity uncertainty 6.2851E-08
perihelion distance uncertainty (AU)1.9169E-07
Minimum Orbit Intersection Distances (in AU)
for orbit epoch: 2460400.5, reference: E2024-H18
Mercury1.89269
Venus1.50563
Earth1.26523
Mars0.70059
Jupiter1.4753
Saturn6.1541
Uranus15.3001
Neptune26.3604

Observations

208 total observations over interval: 2000 12 31.40129 – 2024 03 17.588144
These data are available for download (format description).

Date (UT) J2000 RA J2000 Dec Magn Location Ref
2000 12 31.40129 10 03 29.65 +33 30 50.1 19.7 R 699 – Lowell Observatory-LONEOS MPS 168838
2000 12 31.42502 10 03 29.37 +33 30 55.9   699 – Lowell Observatory-LONEOS MPS 168838
2000 12 31.44869 10 03 29.18 +33 31 03.3   699 – Lowell Observatory-LONEOS MPS 168838
2000 12 31.47234 10 03 29.06 +33 31 09.1   699 – Lowell Observatory-LONEOS MPS 168838
2001 02 16.25318 09 26 22.28 +35 05 11.5 19.5   704 – Lincoln Laboratory ETS, New Mexico MPS 168838
2001 02 16.26808 09 26 21.28 +35 05 09.2 19.5   704 – Lincoln Laboratory ETS, New Mexico MPS 168838
2001 02 16.28973 09 26 19.95 +35 05 04.2 19.9   704 – Lincoln Laboratory ETS, New Mexico MPS 168838
2001 02 16.30491 09 26 19.06 +35 05 00.5 19.6   704 – Lincoln Laboratory ETS, New Mexico MPS 168838
2005 09 30.99354 02 25 13.83 +19 08 20.4 18.8 R A72 – Radebeul Observatory MPS 155353
2005 10 01.06419 02 25 11.26 +19 08 38.1 20.5 R A72 – Radebeul Observatory MPS 155353
2005 10 01.07205 02 25 10.91 +19 08 38.6 20.0 R A72 – Radebeul Observatory MPS 155353
2005 10 01.30336 02 25 02.85 +19 09 38.5 20.7 V 291 – LPL/Spacewatch II MPS 155353
2005 10 01.32095 02 25 02.18 +19 09 42.8 20.7 V 291 – LPL/Spacewatch II MPS 155353
2005 10 01.33220 02 25 01.75 +19 09 45.5 20.7 V 291 – LPL/Spacewatch II MPS 155353
2005 10 01.36994 02 25 00.33 +19 09 54.4 20.0 V G96 – Mt. Lemmon Survey MPS 155353
2005 10 01.37688 02 25 00.08 +19 09 56.2 19.9 V G96 – Mt. Lemmon Survey MPS 155353
2005 10 01.39074 02 24 59.54 +19 09 59.6 20.2 V G96 – Mt. Lemmon Survey MPS 155353
2005 10 10.36424 02 18 32.98 +19 42 35.5 20.4 V 691 – Steward Observatory, Kitt Peak-Spacewatch MPS 155353
2005 10 10.38159 02 18 32.07 +19 42 38.8 20.2 V 691 – Steward Observatory, Kitt Peak-Spacewatch MPS 155353
2005 10 10.39898 02 18 31.18 +19 42 42.4 20.4 V 691 – Steward Observatory, Kitt Peak-Spacewatch MPS 155353
2005 10 23.24125 02 06 23.36 +20 13 42.0 19.5 R 644 – Palomar Mountain/NEAT MPS 152229
2005 10 23.26230 02 06 21.98 +20 13 44.3 19.7 R 644 – Palomar Mountain/NEAT MPS 152229
2005 10 23.28736 02 06 20.40 +20 13 47.1 19.6 R 644 – Palomar Mountain/NEAT MPS 152229
2005 10 23.31482 02 06 18.54 +20 13 50.1 19.8 V 703 – Catalina Sky Survey MPS 147848
2005 10 23.32461 02 06 18.00 +20 13 49.7 19.6 V 703 – Catalina Sky Survey MPS 147848
2005 10 23.33454 02 06 17.31 +20 13 50.9 19.5 V 703 – Catalina Sky Survey MPS 147848
2005 10 23.34437 02 06 16.66 +20 13 52.4 19.9 V 703 – Catalina Sky Survey MPS 147848
2005 10 24.24922 02 05 20.50 +20 15 18.8 19.1 R 699 – Lowell Observatory-LONEOS MPS 147848
2005 10 24.27116 02 05 18.97 +20 15 22.5   699 – Lowell Observatory-LONEOS MPS 147848
2005 10 24.29312 02 05 17.61 +20 15 23.8   699 – Lowell Observatory-LONEOS MPS 147848
2005 10 24.31506 02 05 16.21 +20 15 26.6   699 – Lowell Observatory-LONEOS MPS 147848
2005 10 29.31861 01 59 58.63 +20 21 49.6 19.6 V 703 – Catalina Sky Survey MPS 147848
2005 10 29.32612 01 59 58.20 +20 21 49.5 19.4 V 703 – Catalina Sky Survey MPS 147848
2005 10 29.33384 01 59 57.62 +20 21 49.4 19.7 V 703 – Catalina Sky Survey MPS 147848
2005 10 29.34125 01 59 57.15 +20 21 50.6 19.8 V 703 – Catalina Sky Survey MPS 147848
2005 10 30.25985 01 58 58.57 +20 22 43.8 19.5   704 – Lincoln Laboratory ETS, New Mexico MPS 152229
2005 10 30.27181 01 58 57.77 +20 22 44.3 19.6   704 – Lincoln Laboratory ETS, New Mexico MPS 152229
2005 10 30.28393 01 58 56.95 +20 22 44.9 20.0   704 – Lincoln Laboratory ETS, New Mexico MPS 152229
2005 10 30.29585 01 58 56.13 +20 22 46.2 20.3   704 – Lincoln Laboratory ETS, New Mexico MPS 152229
2005 10 30.30791 01 58 55.41 +20 22 45.8 20.2   704 – Lincoln Laboratory ETS, New Mexico MPS 152229
2005 11 05.22686 01 52 40.83 +20 26 35.7 19.4 R 699 – Lowell Observatory-LONEOS MPS 149739
2005 11 05.25427 01 52 39.02 +20 26 37.1   699 – Lowell Observatory-LONEOS MPS 149739
2005 11 05.28168 01 52 37.32 +20 26 38.2   699 – Lowell Observatory-LONEOS MPS 149739
2005 11 05.30909 01 52 35.51 +20 26 39.1   699 – Lowell Observatory-LONEOS MPS 149739
2005 11 07.26744 01 50 35.14 +20 27 18.5 19.6   704 – Lincoln Laboratory ETS, New Mexico MPS 149739
2005 11 07.27971 01 50 34.36 +20 27 19.2 19.9   704 – Lincoln Laboratory ETS, New Mexico MPS 149739
2005 11 07.29192 01 50 33.56 +20 27 18.8 19.9   704 – Lincoln Laboratory ETS, New Mexico MPS 149739
2007 03 09.37151 13 12 47.40 -05 08 24.5 21.2 V 691 – Steward Observatory, Kitt Peak-Spacewatch MPS 202362
2007 03 09.38917 13 12 46.65 -05 08 23.9 21.4 V 691 – Steward Observatory, Kitt Peak-Spacewatch MPS 202362
2007 03 09.40683 13 12 45.85 -05 08 23.0 21.1 V 691 – Steward Observatory, Kitt Peak-Spacewatch MPS 202362
2007 03 26.29121 12 58 32.31 -04 51 28.1 20.9 V 691 – Steward Observatory, Kitt Peak-Spacewatch MPS 205556
2007 03 26.30887 12 58 31.30 -04 51 27.6 20.5 V 691 – Steward Observatory, Kitt Peak-Spacewatch MPS 205556
2007 03 26.32652 12 58 30.28 -04 51 25.3 20.8 V 691 – Steward Observatory, Kitt Peak-Spacewatch MPS 205556
2007 04 07.29603 12 47 15.00 -04 33 34.3 20.4 V G96 – Mt. Lemmon Survey MPS 206191
2007 04 07.30554 12 47 14.42 -04 33 33.3 20.2 V G96 – Mt. Lemmon Survey MPS 206191
2007 04 07.31505 12 47 13.88 -04 33 32.8 20.0 V G96 – Mt. Lemmon Survey MPS 206191
2007 04 07.32456 12 47 13.38 -04 33 31.6 20.4 V G96 – Mt. Lemmon Survey MPS 206191
2007 04 14.27875 12 40 58.76 -04 24 00.5 20.9 V G96 – Mt. Lemmon Survey MPS 206935
2007 04 14.28431 12 40 58.47 -04 24 00.3 20.7 V G96 – Mt. Lemmon Survey MPS 206935
2007 04 14.28987 12 40 58.22 -04 23 59.8 21.0 V G96 – Mt. Lemmon Survey MPS 206935
2007 04 14.29551 12 40 57.86 -04 23 59.7 20.8 V G96 – Mt. Lemmon Survey MPS 206935
2007 05 10.21773 12 24 20.70 -04 15 38.0 22.5 V G96 – Mt. Lemmon Survey MPS 208955
2007 05 10.22642 12 24 20.48 -04 15 39.6 21.5 V G96 – Mt. Lemmon Survey MPS 208955
2007 05 10.23521 12 24 20.26 -04 15 39.4 21.9 V G96 – Mt. Lemmon Survey MPS 208955
2007 05 10.24402 12 24 20.05 -04 15 40.2 21.1 V G96 – Mt. Lemmon Survey MPS 208955
2010 10 04.334911 22 56 33.348 -15 36 57.44 21.55 r F51 – Pan-STARRS 1, Haleakala MPS 365553
2010 10 04.345311 22 56 32.896 -15 36 57.42 21.41 r F51 – Pan-STARRS 1, Haleakala MPS 365553
2012 01 02.27652 08 36 55.54 +42 05 04.2 19.9 V 703 – Catalina Sky Survey MPS 405942
2012 01 02.28576 08 36 55.11 +42 05 06.7 19.2 V 703 – Catalina Sky Survey MPS 405942
2012 01 02.29500 08 36 54.72 +42 05 09.8 19.6 V 703 – Catalina Sky Survey MPS 405942
2012 01 02.30421 08 36 54.21 +42 05 12.8 19.5 V 703 – Catalina Sky Survey MPS 405942
2012 01 15.29971 08 24 47.32 +42 52 05.6 19.1   704 – Lincoln Laboratory ETS, New Mexico MPS 407720
2012 01 15.31262 08 24 46.40 +42 52 08.2 19.9   704 – Lincoln Laboratory ETS, New Mexico MPS 407720
2012 01 15.32555 08 24 45.48 +42 52 08.8 19.8   704 – Lincoln Laboratory ETS, New Mexico MPS 407720
2012 01 19.23860 08 20 31.92 +42 56 49.3 19.6 V 703 – Catalina Sky Survey MPS 407720
2012 01 19.24426 08 20 31.56 +42 56 50.6 19.2 V 703 – Catalina Sky Survey MPS 407720
2012 01 19.24990 08 20 31.16 +42 56 48.8 18.9 V 703 – Catalina Sky Survey MPS 407720
2012 01 19.25554 08 20 30.76 +42 56 49.4 19.1 V 703 – Catalina Sky Survey MPS 407720
2012 01 29.33638 08 09 38.52 +42 45 34.9 19.5 V 703 – Catalina Sky Survey MPS 410158
2012 01 29.34317 08 09 38.08 +42 45 33.0 19.6 V 703 – Catalina Sky Survey MPS 410158
2012 01 29.34988 08 09 37.65 +42 45 32.1 19.4 V 703 – Catalina Sky Survey MPS 410158
2012 01 29.35663 08 09 37.15 +42 45 30.3 19.3 V 703 – Catalina Sky Survey MPS 410158
2013 05 05.38912 14 26 55.478 -23 45 42.52 21.4 w F51 – Pan-STARRS 1, Haleakala MPS 467432
2013 05 05.40395 14 26 54.673 -23 45 40.74 21.5 w F51 – Pan-STARRS 1, Haleakala MPS 467432
2013 05 05.41873 14 26 53.867 -23 45 39.04 21.3 w F51 – Pan-STARRS 1, Haleakala MPS 467432
2016 09 25.44952 01 30 43.12 +10 09 03.0 20.2 V G96 – Mt. Lemmon Survey MPS 732083
2016 09 25.45384 01 30 42.92 +10 09 03.6 20.2 V G96 – Mt. Lemmon Survey MPS 732083
2016 09 25.46554 01 30 42.35 +10 09 04.0 20.1 V G96 – Mt. Lemmon Survey MPS 732083
2016 09 25.47198 01 30 42.04 +10 09 04.4 20.5 V G96 – Mt. Lemmon Survey MPS 732083
2016 10 05.23952 01 22 22.45 +10 13 05.0 20.1 G G45 – Space Surveillance Telescope, Atom Site MPS 1609438
